DECAYED
Showing default

SZ-18 MODULE, 62077 (Decayed)

Orbit data source: Space-Track

SZ-18 MODULE, 62077 was a payload satellite owned by ZZHGB (CN) in LEO that was launched on Thu, 25 Apr 2024 UTC launched from the Jiuquan Satellite Launch Center, China (JSC). Payload-class satellites include a variety of spacecraft equipped with specific instruments for various scientific and technological missions. These include communications satellites like Starlink; space stations such as the ISS; scientific satellites like the Hubble; Earth observation satellites from companies like Planet Labs, Umbra, and HawkEye 360; GPS; miniature CubeSats for education and research; and military/defense satellites.

Not visible in the next 10 days
Identifier
62077, 2024-078F
Orbit
Decayed
Country
Flag of CNCN / PRC
Related business
Manufacturer
CAST
Mission
Decayed Civil Spaceship
Bus & Motor
SHENZHOU OM, Unknown motor
Mass
~1,842 kg wet, ~1,500 kg dry
Launch date (UTC)
2024-04-25 (2 years ago)
Launch vehicle
Unknown
Launch site
Jiuquan Satellite Launch Center, China (JSC)
Object type
Payload
Rocket body
Debris
Shape & HBR
Cyl + 2 Pan, 2.1 m
Radar Cross Section
9.277 m², Large (>1 m²)

Expand to show TLE details & history
Last TLE update: 1 year ago

TLE from 1 year ago
0 SZ-18 MODULE
1 62077U 24078F   25169.73508573  .11307513  83951-5  12143-3 0  9990
2 62077  41.4466 328.7904 0008290 307.1589 179.4785 16.49966653 35671
Epoch: 2025-06-18T17:38Z
TLE epoch observation values (Epoch: 2025-06-18T17:38:31.407Z)
Latitude
32.21343°
Longitude
-68.23736°
Altitude
145.532 km
Speed
7.821 km/s
True Right ascension
06h 54m 25s
True Declination
32° 02' 38"
Sunlit
Object was in daylight at epoch
Visualization orbit readout
Latitude
Unknown
Longitude
Unknown
Altitude
Unknown
Speed
Unknown
Apparent Right ascension
Unknown
Apparent Declination
Unknown
Sunlit
N/A
Visualization observer readout
Local Sidereal Time
10:17:59
Azimuth
Unknown
Elevation
Unknown
Doppler factor
Unknown
Orbital elements
Apogee altitude
147.149 km
Perigee altitude
136.339 km
Semi-major axis
6,519.881 km
Eccentricity
0.00083
Inclination
41.4466°
RAAN
328.7904°
Arg. of periapsis
307.1589°
True anomaly
179.47936°
Mean anomaly
179.4785°
Eccentric anomaly
179.47893°
Mean motion
4.12272 °/min
Orbital period
87.32 mins
BSTAR
0.00012143
Loading maneuver chart data...
Computing Atmospheric mass density...
Loading historical data...
Loading historical data...
Loading historical data...
Loading historical data...
Loading historical data...
Loading historical data...
Loading historical data...

Documentation

Showing up to 5 results
|